Volver al catálogo

STARLINK-2563

ActivoComunicacionesVLEO
NORAD 48410·PAYLOAD·🇺🇸 United States

Lanzado May 4, 2021 desde Cape Canaveral Space Force Station

Loading…

Próximos Pases (próximas 24 horas)

TLE

ActualizadoSource: CelesTrak SupGP

Época: Sep 14, 2026, 20:41 UTC

1 48410C 21038BK  26257.86229167 -.00026022  00000+0 -83681-3 0  2573
2 48410  53.1578 136.2119 0001240  85.7524 248.3171 15.31714888    12

Sigue STARLINK-2563 en tiempo real con AllMySat

Download on the App Store